• In Kazakhstan
  • List of Countries
  • For 7 days
  • Water Temperature
  • Satellite Maps
  • Weather Map
  • News
  • Weather Widgets
  • user-avatar
    Login

    Hourly Weather Leszczyny

    Today, 22 February, Friday

    Time Temperature Precipitation Wind Pressure Humidity
    00:00 +3°C° 0.9 mm 4 mps 727 mmHg 89%
    01:00 +3°C° 0.9 mm 4 mps 727 mmHg 90%
    02:00 +2°C° 0 mm 3 mps 726 mmHg 91%
    03:00 +2°C° 0.7 mm 3 mps 726 mmHg 91%
    04:00 +2°C° 0.7 mm 3 mps 726 mmHg 92%
    05:00 +2°C° 0.7 mm 3 mps 726 mmHg 92%
    06:00 0°C° 0.9 mm 4 mps 726 mmHg 93%
    07:00 -2°C° 0.9 mm 5 mps 727 mmHg 93%
    08:00 -5°C° 0 mm 6 mps 727 mmHg 92%
    09:00 -6°C° 0.4 mm 6 mps 729 mmHg 87%
    10:00 -6°C° 0.4 mm 6 mps 730 mmHg 82%
    11:00 -8°C° 0.4 mm 6 mps 731 mmHg 76%
    12:00 -8°C° 0 mm 6 mps 732 mmHg 71%
    13:00 -6°C° 0 mm 6 mps 732 mmHg 66%
    14:00 -6°C° 0 mm 6 mps 733 mmHg 61%
    15:00 -8°C° 0 mm 6 mps 734 mmHg 60%
    16:00 -8°C° 0 mm 6 mps 734 mmHg 59%
    17:00 -9°C° 0 mm 6 mps 735 mmHg 58%
    18:00 -9°C° 0 mm 6 mps 736 mmHg 58%
    19:00 -9°C° 0 mm 6 mps 736 mmHg 58%
    20:00 -10°C° 0 mm 5 mps 737 mmHg 58%
    21:00 -10°C° 0 mm 5 mps 738 mmHg 58%
    22:00 -10°C° 0 mm 5 mps 738 mmHg 58%
    23:00 -10°C° 0 mm 5 mps 739 mmHg 58%

    Tomorrow, 23 February, Saturday

    Time Temperature Precipitation Wind Pressure Humidity
    00:00 -10°C° 0 mm 5 mps 739 mmHg 59%
    01:00 -10°C° 0 mm 5 mps 740 mmHg 60%
    02:00 -10°C° 0 mm 5 mps 740 mmHg 61%
    03:00 -10°C° 0 mm 5 mps 741 mmHg 62%
    04:00 -10°C° 0 mm 5 mps 741 mmHg 63%
    05:00 -10°C° 0 mm 4 mps 741 mmHg 64%
    06:00 -10°C° 0 mm 4 mps 741 mmHg 65%
    07:00 -10°C° 0 mm 4 mps 742 mmHg 67%
    08:00 -10°C° 0 mm 4 mps 742 mmHg 68%
    09:00 -9°C° 0 mm 4 mps 742 mmHg 66%
    10:00 -9°C° 0 mm 4 mps 743 mmHg 63%
    11:00 -7°C° 0 mm 3 mps 743 mmHg 60%
    12:00 -7°C° 0 mm 3 mps 743 mmHg 58%
    13:00 -6°C° 0 mm 3 mps 743 mmHg 56%
    14:00 -6°C° 0 mm 3 mps 743 mmHg 53%
    15:00 -6°C° 0 mm 3 mps 743 mmHg 53%
    16:00 -5°C° 0 mm 2 mps 742 mmHg 54%
    17:00 -5°C° 0 mm 2 mps 742 mmHg 54%
    18:00 -5°C° 0 mm 2 mps 743 mmHg 58%
    19:00 -4°C° 0 mm 1 mps 743 mmHg 62%
    20:00 -6°C° 0 mm 1 mps 743 mmHg 66%
    21:00 -6°C° 0 mm 1 mps 743 mmHg 67%
    22:00 -6°C° 0 mm 0 mps 743 mmHg 67%
    23:00 -6°C° 0 mm 0 mps 743 mmHg 68%

    Day after tomorrow, 24 February, Sunday

    Time Temperature Precipitation Wind Pressure Humidity
    00:00 -6°C° 0 mm 0 mps 742 mmHg 68%
    01:00 -6°C° 0 mm 0 mps 742 mmHg 68%
    02:00 -6°C° 0 mm 0 mps 742 mmHg 68%
    03:00 -6°C° 0 mm 0 mps 742 mmHg 66%
    04:00 -5°C° 0 mm 0 mps 742 mmHg 63%
    05:00 -4°C° 0 mm 1 mps 741 mmHg 61%
    06:00 -4°C° 0 mm 1 mps 741 mmHg 60%
    07:00 -4°C° 0 mm 1 mps 741 mmHg 60%
    08:00 -4°C° 0 mm 1 mps 741 mmHg 60%
    09:00 -3°C° 0 mm 1 mps 741 mmHg 54%
    10:00 -2°C° 0 mm 1 mps 741 mmHg 48%
    11:00 0°C° 0 mm 1 mps 741 mmHg 42%
    12:00 -1°C° 0 mm 2 mps 741 mmHg 40%
    13:00 +1°C° 0 mm 2 mps 741 mmHg 38%
    14:00 +2°C° 0 mm 2 mps 740 mmHg 36%
    15:00 +1°C° 0 mm 2 mps 740 mmHg 38%
    16:00 +1°C° 0 mm 2 mps 740 mmHg 40%
    17:00 +1°C° 0 mm 2 mps 740 mmHg 42%
    18:00 -1°C° 0 mm 2 mps 740 mmHg 45%
    19:00 -2°C° 0 mm 2 mps 740 mmHg 48%
    20:00 -1°C° 0 mm 1 mps 740 mmHg 51%
    21:00 -1°C° 0 mm 1 mps 740 mmHg 51%
    22:00 -1°C° 0 mm 1 mps 740 mmHg 51%
    23:00 -1°C° 0 mm 1 mps 740 mmHg 51%

    25 February, Monday

    Time Temperature Precipitation Wind Pressure Humidity
    00:00 -3°C° 0 mm 2 mps 740 mmHg 52%
    01:00 -3°C° 0 mm 2 mps 740 mmHg 52%
    02:00 -3°C° 0 mm 2 mps 740 mmHg 52%
    03:00 -3°C° 0 mm 2 mps 739 mmHg 54%
    04:00 -3°C° 0 mm 2 mps 739 mmHg 56%
    05:00 -4°C° 0 mm 3 mps 739 mmHg 58%
    06:00 -4°C° 0 mm 3 mps 739 mmHg 59%
    07:00 -4°C° 0 mm 3 mps 739 mmHg 61%
    08:00 -2°C° 0 mm 3 mps 738 mmHg 62%
    09:00 -2°C° 0 mm 4 mps 739 mmHg 62%
    10:00 -1°C° 0 mm 4 mps 739 mmHg 62%
    11:00 0°C° 0 mm 4 mps 739 mmHg 62%
    12:00 +1°C° 0 mm 4 mps 739 mmHg 65%
    13:00 +3°C° 0 mm 4 mps 739 mmHg 68%
    14:00 +3°C° 0 mm 4 mps 739 mmHg 70%
    15:00 +3°C° 0 mm 4 mps 738 mmHg 75%
    16:00 +3°C° 0 mm 3 mps 738 mmHg 79%
    17:00 +2°C° 0 mm 3 mps 738 mmHg 84%
    18:00 +1°C° 0 mm 3 mps 738 mmHg 87%
    19:00 +1°C° 0 mm 2 mps 738 mmHg 90%
    20:00 -1°C° 0 mm 2 mps 738 mmHg 94%
    21:00 -1°C° 0 mm 2 mps 738 mmHg 94%
    22:00 -2°C° 0 mm 2 mps 738 mmHg 94%
    23:00 -2°C° 0 mm 2 mps 738 mmHg 94%

    26 February, Tuesday

    Time Temperature Precipitation Wind Pressure Humidity
    00:00 -2°C° 0 mm 2 mps 737 mmHg 94%
    01:00 -2°C° 0 mm 2 mps 737 mmHg 94%
    02:00 -2°C° 0 mm 2 mps 736 mmHg 94%
    03:00 -1°C° 0 mm 3 mps 735 mmHg 93%
    04:00 -1°C° 0 mm 3 mps 735 mmHg 91%
    05:00 -2°C° 0 mm 4 mps 734 mmHg 90%
    06:00 -1°C° 0 mm 4 mps 734 mmHg 87%
    07:00 -1°C° 0 mm 5 mps 733 mmHg 84%
    08:00 -1°C° 0 mm 5 mps 733 mmHg 81%
    09:00 0°C° 0 mm 5 mps 732 mmHg 77%
    10:00 +1°C° 0 mm 6 mps 732 mmHg 72%
    11:00 +2°C° 0 mm 6 mps 731 mmHg 68%
    12:00 +3°C° 0 mm 6 mps 731 mmHg 68%
    13:00 +3°C° 0 mm 7 mps 730 mmHg 67%
    14:00 +3°C° 0 mm 7 mps 730 mmHg 67%
    15:00 +3°C° 0 mm 7 mps 730 mmHg 70%
    16:00 +3°C° 0 mm 6 mps 730 mmHg 73%
    17:00 +3°C° 0 mm 6 mps 730 mmHg 76%
    18:00 +2°C° 0 mm 5 mps 730 mmHg 80%
    19:00 +1°C° 0 mm 5 mps 730 mmHg 84%
    20:00 0°C° 0 mm 5 mps 730 mmHg 87%
    21:00 0°C° 0 mm 5 mps 730 mmHg 87%
    22:00 -1°C° 0 mm 5 mps 730 mmHg 86%
    23:00 -1°C° 0 mm 4 mps 730 mmHg 86%

    27 February, Wednesday

    Time Temperature Precipitation Wind Pressure Humidity
    00:00 -2°C° 0 mm 4 mps 729 mmHg 85%
    01:00 -2°C° 0 mm 4 mps 729 mmHg 84%
    02:00 -3°C° 0 mm 4 mps 729 mmHg 83%
    03:00 -3°C° 0 mm 4 mps 729 mmHg 83%
    04:00 -3°C° 0 mm 4 mps 730 mmHg 84%
    05:00 -3°C° 0 mm 4 mps 730 mmHg 85%
    06:00 -3°C° 0 mm 4 mps 730 mmHg 85%
    07:00 -4°C° 0 mm 5 mps 730 mmHg 85%
    08:00 -4°C° 0 mm 5 mps 730 mmHg 85%
    09:00 -4°C° 0.1 mm 5 mps 730 mmHg 84%
    10:00 -2°C° 0.1 mm 5 mps 730 mmHg 82%
    11:00 -2°C° 0.1 mm 5 mps 731 mmHg 81%
    12:00 -1°C° 0 mm 4 mps 731 mmHg 79%
    13:00 -1°C° 0 mm 4 mps 730 mmHg 78%
    14:00 0°C° 0 mm 4 mps 730 mmHg 76%
    15:00 +1°C° 0 mm 3 mps 730 mmHg 77%
    16:00 +1°C° 0 mm 3 mps 730 mmHg 77%
    17:00 +2°C° 0 mm 2 mps 730 mmHg 78%
    18:00 +2°C° 0 mm 1 mps 730 mmHg 80%
    19:00 +2°C° 0 mm 1 mps 730 mmHg 82%
    20:00 0°C° 0 mm 0 mps 730 mmHg 84%
    21:00 +1°C° 0 mm 1 mps 730 mmHg 86%
    22:00 0°C° 0 mm 1 mps 730 mmHg 88%
    23:00 0°C° 0 mm 1 mps 729 mmHg 89%
    Show more